Estación Meteorológica Peña el Pijo (Robertgarden) [ 11/16/19 01:54:33 CET ]

Fecha Hora Presion(HPa) Temp (°C) Humedad % Rocio (°C) Viento ( m/s) Direccion Lluvia 1Hora(mm) Lluvia 24H(mm) LLuvia Total(mm)
2019-Jun-18 01:08:59 1009.800 - - - - WSW     330.48
2019-Jun-18 02:09:19 1009.900 - - - - WSW     330.48
2019-Jun-18 03:10:31 1009.300 - - - - WSW     330.48
2019-Jun-18 04:09:45 1009.000 - - - - WSW     330.48
2019-Jun-18 05:14:07 1008.900 - - - - WSW     330.48
2019-Jun-18 06:09:15 1009.000 - - - - WSW     330.48
2019-Jun-18 07:09:06 1009.100 - - - - WSW     330.48
2019-Jun-18 08:09:39 1009.200 - - - - WSW     330.48
2019-Jun-18 09:09:13 1009.100 - - - - WSW     330.48
2019-Jun-18 10:09:02 1008.700 - - - - WSW     330.48
2019-Jun-18 11:09:22 1008.300 - - - - WSW     330.48
2019-Jun-18 12:09:36 1008.200 - - - - WSW     330.48
2019-Jun-18 13:08:47 1008.000 - - - - WSW     330.48
2019-Jun-18 14:09:10 1007.300 - - - - WSW     330.48
2019-Jun-18 15:09:24 1007.200 - - - - WSW     330.48
2019-Jun-18 16:09:06 1006.800 - - - - WSW     330.48
2019-Jun-18 17:08:54 1006.500 - - - - WSW     330.48
2019-Jun-18 18:09:18 1006.800 - - - - WSW     330.48
2019-Jun-18 19:09:06 1006.800 - - - - WSW     330.48
2019-Jun-18 20:09:22 1007.200 - - - - WSW     330.48
2019-Jun-18 21:09:37 1007.900 - - - - WSW     330.48
2019-Jun-18 22:09:14 1008.200 - - - - WSW     330.48
2019-Jun-18 23:08:42 1009.100 - - - - WSW     330.48

Temperatura Máxima:    Temperatura Mínima:
Presión Máxima:1009.900 Hpa    Presión Mínima:1006.500 Hpa


Volver